HAZ1383 ZGGG-ZGKL

Flight info

Callsign HAZ1383
Flight time 1h 17m
Altitude 27600
Route AGVIL9 AGVIL W24 OSNOV G586 QP QP8X
Aircraft A321/M-SDE3FGHIRWY/LB1

Departure

Time 2026-05-05 10:32
Airport Guangzhou Baiyun International Airport (ZGGG)

Arrival

Time 2026-05-05 11:49
Airport Guilin Liangjiang International Airport (ZGKL)
Time Latitude Longitude Altitude Speed Heading
2026-05-05 10:29 23.37603 113.30429 58 ft 0 kts 107°
2026-05-05 10:29 23.37603 113.30430 58 ft 1 kts 107°
2026-05-05 10:30 23.37599 113.30449 52 ft 4 kts 103°
2026-05-05 10:30 23.37592 113.30493 58 ft 7 kts 90°
2026-05-05 10:30 23.37624 113.30543 52 ft 10 kts 31°
2026-05-05 10:30 23.37705 113.30569 56 ft 14 kts 14°
2026-05-05 10:31 23.37817 113.30600 53 ft 19 kts 15°
2026-05-05 10:31 23.37969 113.30642 54 ft 31 kts 14°
2026-05-05 10:31 23.38260 113.30721 51 ft 54 kts 14°
2026-05-05 10:31 23.38785 113.30863 57 ft 112 kts 14°
2026-05-05 10:32 23.39802 113.31142 83 ft 183 kts 15°
2026-05-05 10:32 23.41014 113.31485 1068 ft 178 kts 15°
2026-05-05 10:32 23.42218 113.31836 2043 ft 177 kts 16°
2026-05-05 10:32 23.43424 113.32200 2488 ft 194 kts 16°
2026-05-05 10:33 23.44723 113.32589 3305 ft 175 kts 14°
2026-05-05 10:33 23.45919 113.32940 4264 ft 193 kts 13°
2026-05-05 10:33 23.47328 113.33369 4868 ft 219 kts 14°
2026-05-05 10:33 23.48748 113.33755 6248 ft 200 kts
2026-05-05 10:34 23.50250 113.34069 6788 ft 231 kts
2026-05-05 10:34 23.51697 113.34347 7969 ft 196 kts
2026-05-05 10:34 23.53221 113.34596 7431 ft 247 kts
2026-05-05 10:34 23.54887 113.34651 8151 ft 229 kts 355°
2026-05-05 10:35 23.56476 113.34850 8699 ft 243 kts 14°
2026-05-05 10:35 23.58177 113.35401 8888 ft 268 kts 13°
2026-05-05 10:35 23.59997 113.36022 8892 ft 277 kts 14°
2026-05-05 10:35 23.61848 113.36640 8871 ft 278 kts 13°
2026-05-05 10:36 23.63719 113.37186 8877 ft 282 kts 10°
2026-05-05 10:36 23.65690 113.37677 8879 ft 296 kts
2026-05-05 10:36 23.67721 113.38123 8878 ft 298 kts
2026-05-05 10:36 23.69767 113.38534 8880 ft 299 kts
2026-05-05 10:37 23.71816 113.38928 8881 ft 299 kts
2026-05-05 10:37 23.73862 113.39314 8741 ft 297 kts
2026-05-05 10:37 23.75867 113.39693 8341 ft 296 kts
2026-05-05 10:37 23.77891 113.40028 7977 ft 292 kts
2026-05-05 10:38 23.79883 113.39887 7661 ft 284 kts 345°
2026-05-05 10:38 23.81729 113.39201 7486 ft 281 kts 330°
2026-05-05 10:38 23.83348 113.38008 8210 ft 280 kts 316°
2026-05-05 10:38 23.84665 113.36455 9047 ft 279 kts 303°
2026-05-05 10:39 23.85581 113.34594 9827 ft 279 kts 288°
2026-05-05 10:39 23.86028 113.32568 10518 ft 280 kts 275°
2026-05-05 10:39 23.86230 113.30370 10756 ft 302 kts 275°
2026-05-05 10:39 23.86442 113.27997 10894 ft 325 kts 275°
2026-05-05 10:40 23.86669 113.25453 11016 ft 347 kts 275°
2026-05-05 10:40 23.86907 113.22782 11370 ft 358 kts 275°
2026-05-05 10:40 23.87150 113.20051 11957 ft 362 kts 275°
2026-05-05 10:40 23.87399 113.17300 12590 ft 365 kts 275°
2026-05-05 10:41 23.87651 113.14528 13244 ft 368 kts 275°
2026-05-05 10:41 23.87902 113.11735 13848 ft 371 kts 275°
2026-05-05 10:41 23.88151 113.08957 14341 ft 374 kts 275°
2026-05-05 10:41 23.88406 113.06123 14845 ft 378 kts 276°
2026-05-05 10:42 23.88930 113.00673 15818 ft 381 kts 280°
2026-05-05 10:42 23.89718 112.97906 16304 ft 384 kts 294°
2026-05-05 10:42 23.91160 112.95432 16788 ft 389 kts 308°
2026-05-05 10:43 23.93179 112.93436 17285 ft 396 kts 323°
2026-05-05 10:43 23.95616 112.92077 17751 ft 404 kts 337°
2026-05-05 10:43 23.98309 112.91151 18226 ft 407 kts 339°
2026-05-05 10:43 24.01027 112.90248 18639 ft 409 kts 339°
2026-05-05 10:44 24.03760 112.89349 19041 ft 411 kts 340°
2026-05-05 10:44 24.06509 112.88447 19448 ft 413 kts 339°
2026-05-05 10:44 24.09027 112.87620 19818 ft 415 kts 339°
2026-05-05 10:44 24.11797 112.86702 20214 ft 417 kts 339°
2026-05-05 10:45 24.14581 112.85773 20615 ft 419 kts 339°
2026-05-05 10:45 24.17380 112.84838 21047 ft 421 kts 339°
2026-05-05 10:45 24.20145 112.83916 21474 ft 422 kts 339°
2026-05-05 10:45 24.22951 112.82983 21872 ft 423 kts 339°
2026-05-05 10:46 24.25787 112.82045 22267 ft 425 kts 339°
2026-05-05 10:46 24.28623 112.81106 22644 ft 427 kts 339°
2026-05-05 10:46 24.31473 112.80159 23015 ft 429 kts 339°
2026-05-05 10:46 24.34331 112.79205 23390 ft 430 kts 339°
2026-05-05 10:47 24.37202 112.78246 23710 ft 432 kts 339°
2026-05-05 10:47 24.40081 112.77283 24001 ft 434 kts 339°
2026-05-05 10:47 24.42891 112.76083 24239 ft 433 kts 329°
2026-05-05 10:47 24.45374 112.74238 24505 ft 431 kts 317°
2026-05-05 10:48 24.47385 112.71878 24826 ft 429 kts 305°
2026-05-05 10:48 24.48889 112.69063 25115 ft 429 kts 293°
2026-05-05 10:48 24.49788 112.65941 25385 ft 431 kts 281°
2026-05-05 10:48 24.50161 112.62671 25687 ft 433 kts 277°
2026-05-05 10:49 24.50478 112.59386 25990 ft 433 kts 277°
2026-05-05 10:49 24.50796 112.56087 26297 ft 435 kts 277°
2026-05-05 10:49 24.51112 112.52781 26624 ft 436 kts 277°
2026-05-05 10:49 24.51428 112.49463 26930 ft 438 kts 277°
2026-05-05 10:50 24.51742 112.46175 27231 ft 439 kts 277°
2026-05-05 10:50 24.52065 112.42841 27484 ft 440 kts 277°
2026-05-05 10:50 24.52388 112.39524 27542 ft 433 kts 277°
2026-05-05 10:50 24.52704 112.36254 27544 ft 430 kts 277°
2026-05-05 10:51 24.53018 112.32993 27545 ft 429 kts 277°
2026-05-05 10:51 24.53332 112.29741 27534 ft 428 kts 277°
2026-05-05 10:51 24.53643 112.26502 27546 ft 428 kts 277°
2026-05-05 10:51 24.53954 112.23244 27547 ft 428 kts 277°
2026-05-05 10:52 24.54262 112.19992 27540 ft 429 kts 277°
2026-05-05 10:52 24.54567 112.16780 27546 ft 428 kts 277°
2026-05-05 10:52 24.54874 112.13526 27545 ft 428 kts 277°
2026-05-05 10:52 24.55179 112.10276 27545 ft 428 kts 277°
2026-05-05 10:53 24.55485 112.07030 27545 ft 428 kts 277°
2026-05-05 10:53 24.55791 112.03780 27542 ft 427 kts 277°
2026-05-05 10:53 24.56096 112.00535 27543 ft 427 kts 277°
2026-05-05 10:53 24.56400 111.97289 27539 ft 427 kts 277°
2026-05-05 10:54 24.56704 111.94048 27530 ft 426 kts 277°
2026-05-05 10:54 24.57006 111.90809 27529 ft 427 kts 277°
2026-05-05 10:54 24.57303 111.87607 27529 ft 427 kts 277°
2026-05-05 10:54 24.57602 111.84364 27531 ft 427 kts 277°
2026-05-05 10:55 24.57899 111.81119 27531 ft 427 kts 277°
2026-05-05 10:55 24.58196 111.77872 27519 ft 427 kts 277°
2026-05-05 10:55 24.58492 111.74628 27523 ft 427 kts 277°
2026-05-05 10:55 24.58791 111.71382 27518 ft 427 kts 277°
2026-05-05 10:56 24.59093 111.68138 27522 ft 427 kts 277°
2026-05-05 10:56 24.59393 111.64896 27520 ft 427 kts 277°
2026-05-05 10:56 24.59687 111.61699 27520 ft 427 kts 277°
2026-05-05 10:56 24.59982 111.58456 27528 ft 427 kts 277°
2026-05-05 10:57 24.60276 111.55209 27531 ft 427 kts 277°
2026-05-05 10:57 24.60569 111.51967 27520 ft 426 kts 277°
2026-05-05 10:57 24.60863 111.48726 27516 ft 426 kts 277°
2026-05-05 10:57 24.61156 111.45488 27512 ft 426 kts 277°
2026-05-05 10:58 24.61446 111.42251 27513 ft 426 kts 277°
2026-05-05 10:58 24.61735 111.39010 27509 ft 426 kts 277°
2026-05-05 10:58 24.62020 111.35812 27509 ft 426 kts 277°
2026-05-05 10:58 24.62308 111.32572 27521 ft 427 kts 277°
2026-05-05 10:59 24.62597 111.29310 27757 ft 431 kts 277°
2026-05-05 10:59 24.62888 111.26020 27893 ft 435 kts 277°
2026-05-05 10:59 24.63179 111.22709 27920 ft 435 kts 277°
2026-05-05 10:59 24.63463 111.19393 27920 ft 434 kts 276°
2026-05-05 11:00 24.63740 111.16120 27921 ft 428 kts 276°
2026-05-05 11:00 24.64015 111.12870 27915 ft 427 kts 277°
2026-05-05 11:00 24.64288 111.09674 27918 ft 426 kts 277°
2026-05-05 11:00 24.64567 111.06434 27918 ft 425 kts 277°
2026-05-05 11:01 24.64847 111.03201 27650 ft 423 kts 277°
2026-05-05 11:01 24.65131 110.99929 26042 ft 439 kts 277°
2026-05-05 11:01 24.65424 110.96510 24459 ft 458 kts 277°
2026-05-05 11:01 24.65716 110.93022 23669 ft 456 kts 277°
2026-05-05 11:02 24.66005 110.89565 22886 ft 452 kts 277°
2026-05-05 11:02 24.66291 110.86141 22058 ft 447 kts 277°
2026-05-05 11:02 24.66617 110.82806 21265 ft 442 kts 281°
2026-05-05 11:02 24.67329 110.79546 20481 ft 436 kts 289°
2026-05-05 11:03 24.68475 110.76478 19672 ft 433 kts 297°
2026-05-05 11:03 24.70017 110.73659 18923 ft 429 kts 305°
2026-05-05 11:03 24.71857 110.71093 18194 ft 425 kts 309°
2026-05-05 11:03 24.73717 110.68578 17397 ft 422 kts 309°
2026-05-05 11:04 24.75555 110.66082 16633 ft 418 kts 308°
2026-05-05 11:04 24.77371 110.63605 15897 ft 414 kts 308°
2026-05-05 11:04 24.79145 110.61185 15211 ft 409 kts 308°
2026-05-05 11:04 24.80925 110.58763 14561 ft 404 kts 308°
2026-05-05 11:05 24.82656 110.56406 14347 ft 388 kts 308°
2026-05-05 11:05 24.84332 110.54124 13687 ft 383 kts 307°
2026-05-05 11:05 24.86028 110.51813 12768 ft 388 kts 308°
2026-05-05 11:05 24.87697 110.49540 12468 ft 374 kts 308°
2026-05-05 11:06 24.89305 110.47353 12209 ft 361 kts 308°
2026-05-05 11:06 24.90855 110.45245 12040 ft 347 kts 308°
2026-05-05 11:06 24.92338 110.43225 11926 ft 332 kts 307°
2026-05-05 11:06 24.93740 110.41310 11786 ft 320 kts 307°
2026-05-05 11:07 24.95113 110.39429 11540 ft 311 kts 307°
2026-05-05 11:07 24.96448 110.37598 11303 ft 302 kts 307°
2026-05-05 11:07 24.97750 110.35816 11063 ft 295 kts 307°
2026-05-05 11:07 24.99023 110.34073 10832 ft 288 kts 307°
2026-05-05 11:08 25.00266 110.32372 10587 ft 282 kts 307°
2026-05-05 11:08 25.01485 110.30708 10353 ft 276 kts 307°
2026-05-05 11:08 25.02662 110.29102 10125 ft 270 kts 307°
2026-05-05 11:08 25.03826 110.27510 9926 ft 262 kts 307°
2026-05-05 11:09 25.04947 110.25978 9807 ft 251 kts 307°
2026-05-05 11:09 25.06024 110.24505 9680 ft 243 kts 307°
2026-05-05 11:09 25.07077 110.23061 9556 ft 241 kts 307°
2026-05-05 11:09 25.08124 110.21621 9422 ft 240 kts 307°
2026-05-05 11:10 25.09167 110.20184 9294 ft 240 kts 307°
2026-05-05 11:10 25.10207 110.18754 9165 ft 240 kts 307°
2026-05-05 11:10 25.11258 110.17311 9037 ft 240 kts 307°
2026-05-05 11:10 25.12298 110.15904 8904 ft 240 kts 310°
2026-05-05 11:11 25.13493 110.14622 8574 ft 240 kts 319°
2026-05-05 11:11 25.14847 110.13572 8378 ft 231 kts 327°
2026-05-05 11:11 25.16224 110.12811 8254 ft 212 kts 335°
2026-05-05 11:11 25.17587 110.12286 7895 ft 207 kts 342°
2026-05-05 11:12 25.19011 110.11951 7412 ft 211 kts 350°
2026-05-05 11:12 25.20486 110.11825 6929 ft 214 kts 358°
2026-05-05 11:12 25.21959 110.11909 6459 ft 216 kts
2026-05-05 11:12 25.23454 110.12055 6018 ft 212 kts
2026-05-05 11:13 25.24854 110.12190 5898 ft 190 kts
2026-05-05 11:13 25.26118 110.12313 5900 ft 178 kts
2026-05-05 11:13 25.27346 110.12431 5905 ft 177 kts
2026-05-05 11:13 25.28568 110.12550 5908 ft 175 kts
2026-05-05 11:14 25.29776 110.12665 5909 ft 172 kts
2026-05-05 11:14 25.30976 110.12780 5909 ft 175 kts
2026-05-05 11:14 25.32177 110.12894 5916 ft 175 kts
2026-05-05 11:14 25.33396 110.13010 5915 ft 177 kts
2026-05-05 11:15 25.34621 110.13128 5923 ft 177 kts
2026-05-05 11:15 25.35841 110.13248 5919 ft 176 kts
2026-05-05 11:15 25.37054 110.13368 5917 ft 175 kts
2026-05-05 11:15 25.38275 110.13488 5925 ft 176 kts
2026-05-05 11:16 25.39497 110.13605 5918 ft 176 kts
2026-05-05 11:16 25.40683 110.13720 5916 ft 171 kts
2026-05-05 11:16 25.41878 110.13837 5928 ft 173 kts
2026-05-05 11:16 25.43074 110.13955 5927 ft 173 kts
2026-05-05 11:17 25.44276 110.14072 5939 ft 175 kts
2026-05-05 11:17 25.45481 110.14190 5930 ft 168 kts
2026-05-05 11:17 25.46593 110.14218 5923 ft 159 kts 352°
2026-05-05 11:17 25.47691 110.13841 5946 ft 170 kts 330°
2026-05-05 11:18 25.48621 110.13039 5926 ft 171 kts 308°
2026-05-05 11:18 25.49234 110.11931 5781 ft 168 kts 287°
2026-05-05 11:18 25.49459 110.10686 5692 ft 166 kts 271°
2026-05-05 11:18 25.49533 110.09411 5518 ft 166 kts 263°
2026-05-05 11:19 25.49265 110.08202 5364 ft 161 kts 242°
2026-05-05 11:19 25.48628 110.07223 5267 ft 150 kts 221°
2026-05-05 11:19 25.47791 110.06603 5125 ft 143 kts 202°
2026-05-05 11:19 25.46836 110.06334 4977 ft 142 kts 184°
2026-05-05 11:20 25.45857 110.06241 4814 ft 141 kts 184°
2026-05-05 11:20 25.44875 110.06147 4618 ft 141 kts 184°
2026-05-05 11:20 25.43896 110.06053 4439 ft 141 kts 184°
2026-05-05 11:20 25.42929 110.05960 4249 ft 142 kts 184°
2026-05-05 11:21 25.41950 110.05866 4072 ft 141 kts 184°
2026-05-05 11:21 25.40974 110.05772 3890 ft 140 kts 184°
2026-05-05 11:21 25.40004 110.05679 3712 ft 140 kts 184°
2026-05-05 11:21 25.39033 110.05585 3532 ft 139 kts 184°
2026-05-05 11:22 25.38068 110.05493 3359 ft 139 kts 184°
2026-05-05 11:22 25.37100 110.05400 3180 ft 139 kts 183°
2026-05-05 11:22 25.36132 110.05306 2997 ft 139 kts 183°
2026-05-05 11:22 25.35187 110.05216 2819 ft 138 kts 183°
2026-05-05 11:23 25.34229 110.05124 2642 ft 138 kts 183°
2026-05-05 11:23 25.33278 110.05032 2471 ft 137 kts 184°
2026-05-05 11:23 25.32322 110.04940 2301 ft 137 kts 183°
2026-05-05 11:23 25.31364 110.04848 2124 ft 140 kts 183°
2026-05-05 11:24 25.30386 110.04754 1941 ft 142 kts 184°
2026-05-05 11:24 25.29398 110.04660 1767 ft 143 kts 184°
2026-05-05 11:24 25.28409 110.04564 1572 ft 142 kts 183°
2026-05-05 11:24 25.27436 110.04471 1391 ft 142 kts 184°
2026-05-05 11:25 25.26452 110.04376 1195 ft 142 kts 184°
2026-05-05 11:25 25.25470 110.04281 998 ft 141 kts 185°
2026-05-05 11:25 25.24492 110.04177 757 ft 141 kts 185°
2026-05-05 11:25 25.23520 110.04095 672 ft 139 kts 182°
2026-05-05 11:26 25.22585 110.03996 621 ft 125 kts 182°
2026-05-05 11:26 25.21651 110.03870 1021 ft 141 kts 189°
2026-05-05 11:26 25.20696 110.03688 1759 ft 136 kts 188°
2026-05-05 11:26 25.19727 110.03553 1905 ft 150 kts 185°
2026-05-05 11:27 25.18700 110.03445 1899 ft 145 kts 185°
2026-05-05 11:27 25.17711 110.03344 1889 ft 142 kts 184°
2026-05-05 11:27 25.16723 110.03234 1903 ft 143 kts 185°
2026-05-05 11:27 25.15721 110.03125 2051 ft 144 kts 184°
2026-05-05 11:28 25.14740 110.03059 2455 ft 141 kts 183°
2026-05-05 11:28 25.13705 110.03000 2776 ft 153 kts 184°
2026-05-05 11:28 25.12639 110.02932 3313 ft 153 kts 183°
2026-05-05 11:28 25.11585 110.02857 3824 ft 154 kts 183°
2026-05-05 11:29 25.10515 110.02776 4355 ft 154 kts 184°
2026-05-05 11:29 25.09444 110.02689 4894 ft 155 kts 184°
2026-05-05 11:29 25.08365 110.02598 5424 ft 156 kts 184°
2026-05-05 11:29 25.07277 110.02504 5939 ft 157 kts 184°
2026-05-05 11:30 25.06161 110.02405 6316 ft 170 kts 184°
2026-05-05 11:30 25.04926 110.02679 6440 ft 205 kts 143°
2026-05-05 11:30 25.04280 110.03930 7560 ft 194 kts 97°
2026-05-05 11:30 25.04609 110.05494 7879 ft 236 kts 57°
2026-05-05 11:31 25.05944 110.06703 7935 ft 272 kts 21°
2026-05-05 11:31 25.07938 110.06926 7879 ft 314 kts 349°
2026-05-05 11:31 25.10196 110.06276 7908 ft 358 kts 342°
2026-05-05 11:31 25.12718 110.05449 7887 ft 397 kts 342°
2026-05-05 11:32 25.15442 110.04548 8350 ft 405 kts 342°
2026-05-05 11:32 25.18012 110.03719 9057 ft 367 kts 343°
2026-05-05 11:32 25.20425 110.03061 8984 ft 349 kts 346°
2026-05-05 11:32 25.22717 110.02560 8912 ft 333 kts 348°
2026-05-05 11:33 25.24942 110.02099 8787 ft 319 kts 347°
2026-05-05 11:33 25.27072 110.01631 8661 ft 306 kts 346°
2026-05-05 11:33 25.29138 110.01136 8205 ft 305 kts 345°
2026-05-05 11:33 25.31192 110.00604 7936 ft 299 kts 345°
2026-05-05 11:34 25.33165 110.00073 7915 ft 284 kts 345°
2026-05-05 11:34 25.35027 109.99564 7920 ft 268 kts 344°
2026-05-05 11:34 25.36778 109.99080 7919 ft 252 kts 344°
2026-05-05 11:34 25.38430 109.98613 7923 ft 239 kts 340°
2026-05-05 11:35 25.39782 109.97713 7921 ft 229 kts 308°
2026-05-05 11:35 25.40699 109.96290 7943 ft 222 kts 306°
2026-05-05 11:35 25.41925 109.95412 7910 ft 208 kts 347°
2026-05-05 11:35 25.43314 109.95557 7748 ft 199 kts 16°
2026-05-05 11:36 25.44590 109.96265 7089 ft 214 kts 37°
2026-05-05 11:36 25.45309 109.97042 6601 ft 223 kts 53°
2026-05-05 11:36 25.45965 109.98584 5950 ft 225 kts 80°
2026-05-05 11:36 25.46254 110.00192 5911 ft 201 kts 82°
2026-05-05 11:37 25.46629 110.02033 5919 ft 173 kts 79°
2026-05-05 11:37 25.46891 110.03309 5923 ft 169 kts 80°
2026-05-05 11:37 25.47229 110.04554 5922 ft 172 kts 64°
2026-05-05 11:37 25.48089 110.05447 5932 ft 169 kts 26°
2026-05-05 11:38 25.48794 110.05777 5919 ft 164 kts 27°
2026-05-05 11:38 25.49775 110.06406 5929 ft 162 kts 34°
2026-05-05 11:38 25.51034 110.07307 5927 ft 160 kts 35°
2026-05-05 11:38 25.51972 110.07976 5933 ft 160 kts 34°
2026-05-05 11:39 25.52892 110.08625 5930 ft 160 kts 34°
2026-05-05 11:39 25.53840 110.09286 5929 ft 161 kts 33°
2026-05-05 11:39 25.54453 110.09773 5919 ft 160 kts 47°
2026-05-05 11:39 25.54996 110.10784 5927 ft 154 kts 78°
2026-05-05 11:40 25.55049 110.11937 5917 ft 149 kts 105°
2026-05-05 11:40 25.54392 110.13245 5930 ft 145 kts 140°
2026-05-05 11:40 25.53526 110.13771 5921 ft 143 kts 167°
2026-05-05 11:40 25.52873 110.13849 5918 ft 143 kts 184°
2026-05-05 11:41 25.51918 110.13544 5938 ft 145 kts 207°
2026-05-05 11:41 25.50860 110.12645 5938 ft 144 kts 216°
2026-05-05 11:41 25.50332 110.12183 5906 ft 141 kts 214°
2026-05-05 11:41 25.49316 110.11296 5470 ft 142 kts 216°
2026-05-05 11:42 25.48799 110.10845 5216 ft 143 kts 215°
2026-05-05 11:42 25.48011 110.10158 4826 ft 143 kts 218°
2026-05-05 11:42 25.47223 110.09473 4530 ft 144 kts 216°
2026-05-05 11:42 25.46446 110.08793 4257 ft 140 kts 215°
2026-05-05 11:43 25.45688 110.08130 4212 ft 139 kts 215°
2026-05-05 11:43 25.44924 110.07461 4206 ft 141 kts 214°
2026-05-05 11:43 25.44151 110.06783 4195 ft 143 kts 216°
2026-05-05 11:43 25.43328 110.06180 4186 ft 142 kts 196°
2026-05-05 11:44 25.42354 110.06027 4084 ft 141 kts 188°
2026-05-05 11:44 25.41387 110.05871 3940 ft 140 kts 186°
2026-05-05 11:44 25.40110 110.05711 3717 ft 139 kts 184°
2026-05-05 11:44 25.39149 110.05607 3542 ft 139 kts 184°
2026-05-05 11:45 25.38511 110.05542 3430 ft 139 kts 184°
2026-05-05 11:45 25.37548 110.05446 3252 ft 139 kts 183°
2026-05-05 11:45 25.36585 110.05352 3075 ft 139 kts 183°
2026-05-05 11:45 25.35625 110.05258 2885 ft 139 kts 183°
2026-05-05 11:46 25.34663 110.05166 2717 ft 139 kts 183°
2026-05-05 11:46 25.33718 110.05074 2542 ft 138 kts 184°
2026-05-05 11:46 25.32765 110.04983 2369 ft 139 kts 184°
2026-05-05 11:46 25.31797 110.04890 2201 ft 140 kts 184°
2026-05-05 11:47 25.30824 110.04796 2016 ft 140 kts 184°
2026-05-05 11:47 25.29847 110.04703 1838 ft 141 kts 184°
2026-05-05 11:47 25.28873 110.04609 1663 ft 141 kts 184°
2026-05-05 11:47 25.27897 110.04515 1468 ft 140 kts 184°
2026-05-05 11:48 25.25955 110.04340 1092 ft 140 kts 182°
2026-05-05 11:48 25.24982 110.04278 887 ft 140 kts 185°
2026-05-05 11:48 25.24031 110.04146 715 ft 139 kts 185°
2026-05-05 11:49 25.23066 110.04062 589 ft 138 kts 184°
2026-05-05 11:49 25.22455 110.04007 582 ft 34 kts 186°
2026-05-05 11:49 25.22250 110.03978 583 ft 31 kts 187°
2026-05-05 11:49 25.22168 110.04024 579 ft 1 kts 118°
2026-05-05 11:50 25.22166 110.04042 580 ft 5 kts 94°
2026-05-05 11:50 25.22164 110.04081 578 ft 0 kts 94°
2026-05-05 11:51 25.22164 110.04082 578 ft 0 kts 94°
2026-05-05 11:51 25.22164 110.04087 578 ft 1 kts 94°
2026-05-05 11:51 25.22163 110.04095 578 ft 1 kts 94°
2026-05-05 11:52 25.22160 110.04106 578 ft 2 kts 109°
2026-05-05 11:52 25.22125 110.04140 581 ft 13 kts 161°
2026-05-05 11:52 25.22002 110.04134 582 ft 23 kts 190°
2026-05-05 11:52 25.21869 110.04123 581 ft 20 kts 181°
2026-05-05 11:53 25.21761 110.04114 580 ft 9 kts 185°
2026-05-05 11:53 25.21691 110.04107 581 ft 12 kts 185°
2026-05-05 11:53 25.21615 110.04144 580 ft 14 kts 132°
2026-05-05 11:53 25.21520 110.04183 579 ft 16 kts 173°
2026-05-05 11:54 25.21497 110.04185 579 ft 0 kts 173°
2026-05-05 11:54 25.21491 110.04185 583 ft 2 kts 185°
2026-05-05 11:54 25.21469 110.04180 583 ft 4 kts 191°
2026-05-05 11:54 25.21430 110.04173 581 ft 7 kts 188°
2026-05-05 11:55 25.21385 110.04197 582 ft 9 kts 116°
2026-05-05 11:55 25.21372 110.04219 581 ft 2 kts 139°
2026-05-05 11:55 25.21333 110.04253 579 ft 13 kts 124°
2026-05-05 11:55 25.21325 110.04313 582 ft 3 kts 69°
2026-05-05 11:56 25.21359 110.04332 579 ft 0 kts 14°
2026-05-05 11:56 25.21370 110.04334 583 ft 1 kts 10°
2026-05-05 11:56 25.21376 110.04335 582 ft 0 kts